Fearrington, North Carolina
Current Conditions -  °F | °C
As of 5:35 AM on Sunday 21 Dec 2014 (Local Time) from KTTA Reporting Station
Overcast Overcast  
Wind Chill: 39°   Ceiling: 2600
Heat Index: 39°   Visibility: 7mi
Dew Point: 39°   Wind: 0mph
Humidity: 99%   Direction: NA
Pressure: 30.26"   Gusts: NA
Location:  35.7517°N, 79.2325°W
Report Text: KTTA 211035Z AUTO 00000KT 7SM OVC026 04/04 A3026 RMK AO2 T00410039
Loading
Personal Weather Stations






























Interactive Weather Map New forecast layout! Learn more

10-Day Weather Forecast

Advertisements
Track Severe Weather on mobile